EW3174 Weather Reports


time (UTC)temp
F
wind
direction
speed
knots
gust
knots
rain 1hr
in
rain 24hr
in
rain mn
in
humidity
%
barometer
mb
20260507104604 55 83 0.9 4.3 0.00 0.00 0.00 92 1018.3
20260507103129 55 42 0.0 4.3 0.00 0.00 0.00 92 1018.5
20260507101557 56 82 0.0 0.0 0.00 0.00 0.00 92 1018.5
20260507100108 56 77 0.0 0.0 0.00 0.00 0.00 92 1018.6
20260507094556 56 85 0.0 0.0 0.00 0.00 0.00 91 1018.6
20260507093052 56 76 0.0 4.3 0.00 0.00 0.00 91 1018.8
20260507091652 56 76 2.6 6.1 0.00 0.00 0.00 91 1018.8
20260507090056 56 76 1.7 4.3 0.00 0.00 0.00 91 1018.9
20260507084553 56 70 2.6 8.7 0.00 0.00 0.00 91 1019.0
20260507083046 56 58 2.6 5.2 0.00 0.00 0.00 90 1019.1
20260507081543 56 63 0.0 0.0 0.00 0.00 0.00 91 1019.3
20260507080049 56 66 0.0 0.0 0.00 0.00 0.00 91 1019.5
20260507074541 56 63 0.0 0.0 0.00 0.00 0.00 90 1019.4
20260507073041 57 47 0.0 0.0 0.00 0.00 0.00 89 1019.4
20260507071535 57 38 0.0 0.0 0.00 0.00 0.00 88 1019.4
20260507070050 58 56 0.0 0.0 0.00 0.00 0.00 88 1019.6
20260507064532 58 56 0.0 0.0 0.00 0.00 0.00 88 1019.4
20260507063035 58 34 0.0 0.0 0.00 0.00 0.00 88 1019.4
20260507061531 59 63 0.0 0.0 0.00 0.00 0.00 87 1019.5
20260507060033 59 67 0.0 0.0 0.00 0.00 0.00 86 1019.5
20260507054532 60 55 0.0 0.0 0.00 0.00 0.00 86 1019.5
20260507053033 61 53 0.0 0.0 0.00 0.00 0.00 85 1019.4
20260507051530 62 11 0.0 0.0 0.00 0.00 0.00 86 1019.4
20260507050040 62 5 0.0 0.0 0.00 0.00 0.00 87 1019.3
20260507044528 62 321 0.0 0.0 0.00 0.00 0.00 86 1019.4
20260507043027 62 345 0.0 0.0 0.00 0.00 0.00 87 1019.2
20260507041527 62 348 0.0 0.0 0.00 0.00 0.00 88 1019.2
20260507040026 62 331 0.0 0.0 0.00 0.00 0.00 88 1019.2
20260507034526 62 288 0.0 0.0 0.00 0.00 0.00 87 1019.2
20260507033025 62 296 0.0 0.0 0.00 0.00 0.00 85 1019.0
20260507031527 62 351 0.0 0.0 0.00 0.00 0.00 86 1019.0
20260507030024 62 284 0.0 0.0 0.00 0.00 0.00 86 1018.7
20260507024525 63 5 0.0 0.0 0.00 0.00 0.00 87 1018.6
20260507023022 63 320 0.0 0.0 0.00 0.00 0.00 87 1018.8
20260507021528 63 335 0.0 0.0 0.00 0.00 0.00 85 1018.5
20260507020120 64 350 0.0 0.0 0.00 0.00 0.00 85 1018.4
20260507014522 64 344 0.0 0.0 0.00 0.00 0.00 84 1018.4
20260507013021 65 311 0.0 0.0 0.00 0.00 0.00 84 1018.2
20260507011520 65 326 0.0 0.0 0.00 0.00 0.00 84 1018.3
20260507010018 65 257 0.0 0.0 0.00 0.00 0.00 82 1018.2
20260507004506 66 287 0.0 0.0 0.00 0.00 0.00 78 1018.1
20260507003103 66 305 0.0 0.0 0.00 0.00 0.00 78 1018.0
20260507001500 66 250 0.0 0.0 0.00 0.00 0.00 78 1018.2
20260507000124 66 302 0.0 0.0 0.00 0.00 0.00 79 1017.9
20260506234621 66 288 4.3 10.4 0.00 0.00 0.00 82 1018.1
20260506233057 66 284 6.1 10.4 0.00 0.00 0.00 81 1017.9
20260506231556 66 20 5.2 11.3 0.00 0.00 0.00 81 1017.9
20260506224553 66 331 5.2 11.3 0.00 0.00 0.00 82 1018.3
20260506223050 66 346 5.2 11.3 0.00 0.00 0.00 82 1018.5
20260506221559 66 262 6.1 10.4 0.00 0.00 0.00 81 1018.5
20260506220048 66 69 6.1 11.3 0.00 0.00 0.00 80 1018.7
20260506214546 66 314 6.1 10.4 0.00 0.00 0.00 79 1018.7
20260506213053 66 295 4.3 12.2 0.00 0.00 0.00 81 1018.9
20260506211551 65 331 6.1 10.4 0.00 0.00 0.00 80 1019.1
20260506210046 65 252 5.2 8.7 0.00 0.00 0.00 80 1019.1
20260506204540 66 304 5.2 8.7 0.00 0.00 0.00 78 1019.3
20260506203038 66 5 4.3 8.7 0.00 0.00 0.00 78 1019.3
20260506201539 65 245 5.2 10.4 0.00 0.00 0.00 79 1019.6
20260506200036 65 300 5.2 8.7 0.00 0.00 0.00 79 1019.6
20260506193045 65 320 4.3 9.6 0.00 0.00 0.00 78 1019.9
20260506191533 65 350 0.9 7.8 0.00 0.00 0.00 79 1020.1
20260506190032 65 292 0.9 7.0 0.00 0.00 0.00 77 1020.3
20260506184531 65 288 0.0 7.0 0.00 0.00 0.00 78 1020.4
20260506183027 65 263 1.7 6.1 0.00 0.00 0.00 77 1020.5
20260506181536 64 259 1.7 6.1 0.00 0.00 0.00 77 1020.6
20260506180025 64 248 1.7 7.0 0.00 0.00 0.00 78 1020.5
20260506174523 64 308 0.0 6.1 0.00 0.00 0.00 79 1020.7
20260506173033 64 308 1.7 4.3 0.00 0.00 0.00 78 1020.7
20260506171521 64 275 1.7 5.2 0.00 0.00 0.00 78 1020.8
20260506170021 64 271 0.9 6.1 0.00 0.00 0.00 78 1020.8
20260506164520 64 277 1.7 4.3 0.00 0.00 0.00 77 1020.7
20260506163027 64 294 0.0 4.3 0.00 0.00 0.00 76 1020.7
20260506161517 64 303 0.0 3.5 0.00 0.00 0.00 78 1020.7
20260506160015 63 264 0.0 0.0 0.00 0.00 0.00 77 1020.6
20260506154512 62 98 1.7 4.3 0.00 0.00 0.00 80 1020.7
20260506153009 61 67 0.9 4.3 0.00 0.00 0.00 81 1020.6
20260506151508 59 80 0.9 3.5 0.00 0.00 0.00 83 1020.6
20260506150100 57 123 0.9 7.8 0.00 0.00 0.00 85 1020.5
20260506144607 56 78 4.3 8.7 0.00 0.00 0.00 86 1020.5
20260506143059 55 88 4.3 10.4 0.00 0.00 0.00 88 1020.5
20260506141601 53 74 5.2 9.6 0.00 0.00 0.00 90 1020.4
20260506140056 52 90 4.3 9.6 0.00 0.00 0.00 90 1020.3
20260506134553 52 78 0.0 7.8 0.00 0.00 0.00 91 1020.2
20260506131553 51 66 1.7 7.0 0.00 0.00 0.00 91 1020.0
20260506130056 51 81 1.7 7.0 0.00 0.00 0.00 91 1019.9
20260506124548 51 69 3.5 7.8 0.00 0.00 0.00 91 1019.6
20260506123045 52 84 0.9 7.0 0.00 0.00 0.00 90 1019.6
20260506121545 52 74 2.6 8.7 0.00 0.00 0.00 90 1019.6
20260506120042 52 57 0.0 7.8 0.00 0.00 0.00 90 1019.6
20260506114546 52 71 1.7 6.1 0.00 0.01 0.00 90 1019.5
20260506113039 52 77 1.7 5.2 0.00 0.01 0.00 90 1019.5
20260506111536 52 76 0.9 7.8 0.00 0.01 0.00 90 1019.4
20260506110041 53 76 0.9 7.8 0.00 0.01 0.00 90 1019.4